Weather History for Madisonville, KY

Change the Weather History Date:

Sunday, March 24, 2013

  Actual Average (KOWB) Record (KOWB)
Temperature  
Mean Temperature 42 °F -  
Max Temperature 47 °F 59 °F 81 °F (1939)
Min Temperature 35 °F 36 °F 14 °F (1974)
Degree Days  
Heating Degree Days 24    
Moisture  
Dew Point 40 °F    
Average Humidity 93    
Maximum Humidity 100    
Minimum Humidity 74    
Precipitation  
Precipitation 0.32 in - - ()
Sea Level Pressure  
Sea Level Pressure 29.58 in    
Wind  
Wind Speed 11 mph (North)    
Max Wind Speed 24 mph    
Max Gust Speed 34 mph    
Visibility 7 miles    
Events Rain , Snow    
Averages and records for this station are not official NWS values.
T = Trace of Precipitation, MM = Missing Value Source: NWS Daily Summary

Daily Weather History Graph

Daily Weather History Graph

Search for Another Location

Airport:

Trip Planner

Search our weather history database for the weather conditions in past years. The results will help you decide how hot, cold, wet, or windy it might be!

Date:

Astronomy

Mar. 24, 2013 Rise Set
Actual Time 6:46 AM CDT 7:05 PM CDT
Civil Twilight 6:20 AM CDT 7:31 PM CDT
Nautical Twilight 5:50 AM CDT 8:02 PM CDT
Astronomical Twilight 5:19 AM CDT 8:33 PM CDT
Moon 4:35 PM CDT (3/24) 4:53 AM CDT (3/24)
Length of Visible Light 13h 10m
Length of Day
12h 18m
Waxing Gibbous, 92% of the Moon is Illuminated
Mar 24
Waxing Gibbous
Mar 27
Full
Apr 2
Last Quarter
Apr 10
New
Apr 18
First Quarter

Hourly Weather History & Observations

Time (CDT) Temp. Windchill Dew Point Humidity Pressure Visibility Wind Dir Wind Speed Gust Speed Precip Events Conditions
12:15 AM 48.4 °F - 40.3 °F 74% 29.79 in 10.0 mi North 5.8 mph - N/A Rain Light Rain
12:35 AM 46.4 °F 41.5 °F 42.3 °F 85% 29.75 in 7.0 mi East 10.4 mph - 0.01 in Rain Rain
12:55 AM 46.4 °F 41.9 °F 41.2 °F 82% 29.74 in 10.0 mi East 9.2 mph - 0.03 in Rain Light Rain
1:15 AM 46.6 °F - 41.0 °F 81% 29.76 in 10.0 mi NE 3.5 mph - N/A Rain Light Rain
1:35 AM 45.5 °F 42.5 °F 42.4 °F 89% 29.75 in 10.0 mi NNW 5.8 mph - 0.01 in Rain Light Rain
1:55 AM 44.6 °F 40.2 °F 42.8 °F 93% 29.73 in 7.0 mi NE 8.1 mph - 0.02 in Rain Light Rain
2:15 AM 43.9 °F 38.8 °F 43.0 °F 97% 29.72 in 7.0 mi NE 9.2 mph - 0.02 in Rain Light Rain
2:35 AM 43.9 °F 38.3 °F 42.8 °F 96% 29.71 in 10.0 mi ENE 10.4 mph - 0.02 in   Overcast
2:55 AM 43.7 °F 39.1 °F 42.3 °F 95% 29.71 in 10.0 mi NNE 8.1 mph - 0.02 in   Light Drizzle
3:15 AM 43.2 °F 37.0 °F 41.5 °F 94% 29.70 in 10.0 mi NNE 11.5 mph - N/A Rain Light Rain
3:35 AM 42.8 °F 36.2 °F 41.0 °F 93% 29.67 in 10.0 mi NE 12.7 mph - N/A Rain Light Rain
3:55 AM 42.3 °F 35.9 °F 41.0 °F 95% 29.66 in 10.0 mi NE 11.5 mph - 0.01 in Rain Light Rain
4:15 AM 41.9 °F 35.0 °F 40.8 °F 96% 29.66 in 5.0 mi NE 12.7 mph - 0.02 in Rain Rain
4:35 AM 41.4 °F 35.2 °F 40.8 °F 98% 29.66 in 7.0 mi NE 10.4 mph - 0.02 in Rain Rain
4:55 AM 41.4 °F 34.3 °F 40.6 °F 97% 29.66 in 7.0 mi NE 12.7 mph - 0.02 in Rain Light Rain
5:15 AM 41.2 °F 34.1 °F 40.6 °F 98% 29.66 in 7.0 mi NE 12.7 mph 17.3 mph N/A   Overcast
5:35 AM 41.0 °F 33.1 °F 40.1 °F 97% 29.65 in 7.0 mi NE 15.0 mph - N/A Rain Rain
5:55 AM 40.6 °F 33.4 °F 40.1 °F 98% 29.66 in 7.0 mi NE 12.7 mph 17.3 mph N/A   Light Drizzle
6:15 AM 40.5 °F 33.2 °F 39.7 °F 97% 29.65 in 5.0 mi NE 12.7 mph - 0.01 in Rain Light Rain
6:35 AM 40.3 °F 33.0 °F 39.7 °F 98% 29.65 in 7.0 mi NE 12.7 mph - 0.01 in   Overcast
6:55 AM 40.1 °F 32.7 °F 39.4 °F 97% 29.65 in 4.0 mi NE 12.7 mph - 0.04 in Rain Rain
7:15 AM 39.7 °F 32.7 °F 39.2 °F 98% 29.66 in 5.0 mi NE 11.5 mph - 0.01 in Rain Light Rain
7:35 AM 39.7 °F 33.7 °F 39.4 °F 99% 29.65 in 5.0 mi NE 9.2 mph - 0.01 in   Overcast
7:55 AM 39.9 °F 33.9 °F 39.4 °F 98% 29.64 in 5.0 mi NE 9.2 mph - 0.01 in   Drizzle
8:15 AM 40.1 °F 33.2 °F 39.6 °F 98% 29.63 in 5.0 mi ENE 11.5 mph - N/A   Overcast
8:35 AM 40.1 °F 34.1 °F 39.4 °F 97% 29.63 in 7.0 mi ENE 9.2 mph - N/A   Overcast
8:55 AM 40.3 °F 34.4 °F 39.6 °F 97% 29.63 in 5.0 mi East 9.2 mph - N/A   Overcast
9:15 AM 40.5 °F 34.6 °F 39.9 °F 98% 29.61 in 4.0 mi East 9.2 mph - N/A   Overcast
9:35 AM 40.5 °F 35.8 °F 40.1 °F 99% 29.61 in 4.0 mi ESE 6.9 mph - N/A   Overcast
9:55 AM 41.0 °F 33.5 °F 40.3 °F 97% 29.57 in 5.0 mi East 13.8 mph - N/A   Overcast
10:15 AM 41.0 °F 33.9 °F 40.1 °F 97% 29.55 in 7.0 mi East 12.7 mph 19.6 mph N/A   Overcast
10:35 AM 41.0 °F 31.9 °F 40.5 °F 98% 29.50 in 5.0 mi ESE 19.6 mph - N/A   Overcast
10:55 AM 41.2 °F 36.6 °F 40.5 °F 97% 29.52 in 5.0 mi ENE 6.9 mph 16.1 mph N/A   Overcast
11:15 AM 41.4 °F 34.0 °F 40.8 °F 98% 29.48 in 7.0 mi East 13.8 mph - N/A   Overcast
11:35 AM 42.3 °F 35.1 °F 41.5 °F 97% 29.46 in 7.0 mi East 13.8 mph - N/A   Overcast
11:55 AM 42.6 °F 38.4 °F 41.5 °F 96% 29.47 in 7.0 mi SE 6.9 mph - N/A   Overcast
12:15 PM 42.4 °F 38.8 °F 41.4 °F 96% 29.51 in 7.0 mi South 5.8 mph - N/A   Overcast
12:35 PM 42.1 °F 37.1 °F 41.4 °F 97% 29.48 in 5.0 mi SE 8.1 mph - 0.01 in Rain Rain
12:55 PM 42.1 °F 40.2 °F 41.9 °F 99% 29.48 in 3.0 mi SSE 3.5 mph - 0.05 in Rain Rain
1:15 PM 42.8 °F 41.1 °F 42.8 °F 100% 29.47 in 2.5 mi SSE 3.5 mph - 0.05 in Rain Rain
1:35 PM 42.8 °F - 42.8 °F 100% 29.46 in 2.5 mi Calm Calm - 0.09 in Rain Rain
1:55 PM 42.8 °F 41.1 °F 42.8 °F 100% 29.45 in 4.0 mi SSE 3.5 mph - 0.10 in Rain Rain
2:15 PM 43.0 °F 41.3 °F 43.0 °F 100% 29.45 in 4.0 mi South 3.5 mph - 0.01 in Rain Light Rain
2:35 PM 44.2 °F 41.0 °F 44.2 °F 100% 29.43 in 7.0 mi SSW 5.8 mph - 0.01 in Rain Light Rain
2:55 PM 45.1 °F 41.4 °F 45.0 °F 99% 29.43 in 10.0 mi SW 6.9 mph - 0.01 in   Overcast
3:15 PM 46.8 °F - 46.0 °F 97% 29.44 in 7.0 mi West 11.5 mph - 0.01 in Rain Light Rain
3:35 PM 47.3 °F - 45.5 °F 93% 29.44 in 10.0 mi West 13.8 mph - 0.01 in   Overcast
3:55 PM 47.3 °F - 44.4 °F 90% 29.44 in 10.0 mi West 16.1 mph 24.2 mph 0.01 in   Overcast
4:15 PM 46.8 °F - 43.9 °F 90% 29.44 in 10.0 mi West 15.0 mph 24.2 mph N/A   Overcast
4:35 PM 46.4 °F 40.4 °F 42.4 °F 86% 29.44 in 10.0 mi West 13.8 mph 27.6 mph N/A   Overcast
4:55 PM 45.7 °F 39.5 °F 42.4 °F 88% 29.45 in 10.0 mi West 13.8 mph 21.9 mph N/A   Overcast
5:15 PM 45.0 °F 37.4 °F 41.4 °F 87% 29.45 in 10.0 mi West 18.4 mph 24.2 mph N/A   Light Drizzle
5:35 PM 44.1 °F 36.5 °F 40.8 °F 88% 29.46 in 10.0 mi West 17.3 mph 26.5 mph N/A   Overcast
5:55 PM 43.2 °F 35.6 °F 41.0 °F 92% 29.47 in 7.0 mi West 16.1 mph 24.2 mph N/A   Drizzle
6:15 PM 41.9 °F 33.4 °F 40.1 °F 93% 29.48 in 7.0 mi West 18.4 mph 26.5 mph N/A   Drizzle
6:35 PM 41.5 °F 33.2 °F 39.2 °F 91% 29.50 in 10.0 mi West 17.3 mph 26.5 mph N/A Rain Light Rain
6:55 PM 40.3 °F 30.7 °F 36.9 °F 88% 29.52 in 10.0 mi West 20.7 mph 33.4 mph N/A   Light Drizzle
7:15 PM 39.6 °F 29.0 °F 36.7 °F 89% 29.53 in 10.0 mi West 24.2 mph 31.1 mph N/A   Light Drizzle
7:35 PM 38.7 °F 29.1 °F 35.8 °F 89% 29.55 in 10.0 mi WNW 18.4 mph 26.5 mph N/A   Drizzle
7:55 PM 37.4 °F 27.2 °F 34.7 °F 90% 29.56 in 7.0 mi West 19.6 mph 27.6 mph N/A Snow Light Snow
8:15 PM 37.4 °F 26.4 °F 33.6 °F 86% 29.57 in 10.0 mi West 23.0 mph 28.8 mph N/A   Overcast
8:35 PM 36.9 °F 27.8 °F 33.1 °F 86% 29.58 in 10.0 mi West 15.0 mph 25.3 mph N/A Snow Light Snow
8:55 PM 36.7 °F 26.3 °F 32.7 °F 86% 29.58 in 10.0 mi West 19.6 mph 23.0 mph N/A Snow Light Snow
9:15 PM 36.1 °F 26.2 °F 32.9 °F 88% 29.59 in 7.0 mi West 17.3 mph 27.6 mph N/A Snow Light Snow
9:35 PM 36.1 °F 25.9 °F 32.4 °F 86% 29.60 in 7.0 mi West 18.4 mph 29.9 mph N/A Snow Light Snow
9:55 PM 36.0 °F 24.7 °F 32.2 °F 86% 29.60 in 7.0 mi West 21.9 mph 34.5 mph N/A   Overcast
10:15 PM 36.5 °F 25.7 °F 32.0 °F 84% 29.60 in 7.0 mi West 20.7 mph 33.4 mph N/A Snow Light Snow
10:35 PM 36.0 °F 24.4 °F 32.0 °F 86% 29.61 in 7.0 mi WNW 23.0 mph 32.2 mph N/A Snow Light Snow
10:55 PM 35.8 °F 24.8 °F 32.0 °F 86% 29.62 in 7.0 mi West 20.7 mph 33.4 mph N/A Snow Light Snow
11:15 PM 35.6 °F 24.2 °F 32.0 °F 87% 29.63 in 5.0 mi West 21.9 mph 27.6 mph N/A Snow Light Snow
11:35 PM 35.2 °F 24.1 °F 32.4 °F 89% 29.64 in 4.0 mi WNW 20.7 mph 29.9 mph N/A Snow Light Snow
11:55 PM 35.6 °F 25.9 °F 32.0 °F 87% 29.65 in 7.0 mi WNW 16.1 mph 28.8 mph N/A   Overcast